SL-16 DEB, 22419

Orbit data source: Space-Track

SL-16 DEB, 22419 is space debris in LEO originally from a launch on Fri, 25 Dec 1992 UTC launched from the Tyuratam Missile And Space Complex (TTMTR). Debris objects in space refer to the collection of defunct objects orbiting the Earth. Examples of debris include non-operational satellites, rocket bodies, and fragments generated from explosions, collisions, or faulty payload assembly.

Loading next visibility...
Identifier
22419, 1992-093DL
Orbit
LEO
Country
Flag of CISCIS
Related business
Manufacturer
Unknown
Mission
Spacecraft
Bus & Motor
Unknown
Mass
Unknown
Launch date (UTC)
1992-12-25 (33 years ago)
Launch vehicle
Unknown
Launch site
Tyuratam Missile And Space Complex (TTMTR)
Object type
Payload
Rocket body
Debris
Shape & HBR
Unknown shape, 0.1 m
Radar Cross Section
Small (<0.1 m²)

Expand to show TLE details & history
Last TLE update: 10 hours ago

TLE from 10 hours ago
0 SL-16 DEB
1 22419U 92093DL  26127.29752451  .00000213  00000-0  17876-3 0  9992
2 22419  71.1794 248.6355 0107158 255.4802 103.4405 13.96085776695380
Epoch: 2026-05-07T07:08Z
TLE epoch observation values (Epoch: 2026-05-07T07:08:26.117Z)
Latitude
-0.0001°
Longitude
-83.61904°
Altitude
928.709 km
Speed
7.378 km/s
True Right ascension
16h 34m 32s
True Declination
0° 00' 00"
Sunlit
Object was in full shadow at epoch
Visualization orbit readout
Latitude
Unknown
Longitude
Unknown
Altitude
Unknown
Speed
Unknown
Apparent Right ascension
Unknown
Apparent Declination
Unknown
Sunlit
N/A
Visualization observer readout
Local Sidereal Time
01:07:34
Azimuth
Unknown
Elevation
Unknown
Doppler factor
Unknown
Orbital elements
Apogee altitude
983.355 km
Perigee altitude
827.259 km
Semi-major axis
7,283.444 km
Eccentricity
0.01072
Inclination
71.1794°
RAAN
248.6355°
Arg. of periapsis
255.4802°
True anomaly
104.63102°
Mean anomaly
103.4405°
Eccentric anomaly
104.03614°
Mean motion
3.49171 °/min
Orbital period
103.1 mins
BSTAR
0.00017876
Loading maneuver chart data...
Computing Atmospheric mass density...
Loading historical data...
Loading historical data...
Loading historical data...
Loading historical data...
Loading historical data...
Loading historical data...
Loading historical data...

Documentation

Showing up to 5 results
|